Miscellaneous Local Product
Issued by NWS Hastings, NE

Home | Current Version | Previous Version | Graphics & Text | Print | Product List | Glossary On
Versions: 1 2 3 4 5 6 7 8 9 10 11 12 13 14 15 16 17 18 19 20 21 22 23 24 25 26 27 28 29 30 31 32 33 34 35 36 37 38 39 40 41 42 43 44 45 46 47 48 49 50
000
AXUS43 KGID 291002
MISGRI

GID CWA HOURLY WEATHER ROUNDUP
NATIONAL WEATHER SERVICE HASTINGS NE
500 AM CDT WED JUL 29 2015

NOTE: "FAIR" INDICATES FEW OR NO CLOUDS BELOW 12,000 FEET WITH NO
SIGNIFICANT WEATHER AND/OR OBSTRUCTIONS TO VISIBILITY.

...SOUTH CENTRAL NEBRASKA...

CITY           SKY/WX    TMP DP  RH WIND       PRES   REMARKS
GRAND ISLAND   CLEAR     58  54  86 N7        30.17R
HASTINGS       PTCLDY    59  56  89 CALM      30.16R
KEARNEY        PTCLDY    59  52  77 NW7       30.17S
ORD            CLEAR     54  51  90 CALM      30.18R
YORK           CLEAR     57  57 100 N5        30.14R
AURORA         CLEAR     59  58  96 N5        30.16R
LEXINGTON      PTCLDY    55  52  89 W6        30.20R
HOLDREGE       MOCLDY    56  53  89 CALM      30.18R
HEBRON         PTCLDY    61  58  91 CALM      30.12R

...NEBRASKA PANHANDLE...

CITY           SKY/WX    TMP DP  RH WIND       PRES   REMARKS
CHADRON        CLEAR     44  40  85 W7        30.26R
ALLIANCE       CLEAR     42  39  89 W5        30.28R
SCOTTSBLUFF    CLEAR     50  46  86 NW3       30.29R
SIDNEY           N/A     48  42  80 N8        30.29R

...WESTERN AND NORTH CENTRAL NEBRASKA...

CITY           SKY/WX    TMP DP  RH WIND       PRES   REMARKS
VALENTINE      CLEAR     49  45  86 SW8       30.21R
AINSWORTH      CLEAR     53  47  81 SW5       30.21R
ONEILL         CLEAR     53  52  96 SW6       30.17S
BROKEN BOW     PTCLDY    54  50  86 CALM      30.21R
IMPERIAL       PTCLDY    54  49  83 N3        30.24R
NORTH PLATTE   CLEAR     58  48  69 NE8       30.22R
MCCOOK         MOCLDY    58  50  75 N3        30.21R

...EASTERN NEBRASKA...

CITY           SKY/WX    TMP DP  RH WIND       PRES   REMARKS
NORFOLK        CLEAR     55  52  89 W5        30.14R
SO SIOUX CITY  CLEAR     59  55  87 NW6       30.11R
TEKAMAH        CLEAR     60  58  92 CALM      30.11R
COLUMBUS       CLEAR     52  46  82 CALM      30.15R
ALBION         CLEAR     53  50  90 CALM      30.16R
OMAHA EPPLEY   PTCLDY    65  62  90 N10       30.10R
OFFUTT AFB     PTCLDY    63  60  91 CALM      30.09R
MILLARD        PTCLDY    64  62  92 CALM      30.10R
LINCOLN        CLEAR     60  59  96 N8        30.12R
NEBRASKA CITY  MOCLDY    66  58  77 NE5       30.09R
BEATRICE       PTCLDY    62  60  96 N3        30.10R
FALLS CITY     CLOUDY    72  69  90 N9        30.05S

...NORTHERN KANSAS...

CITY           SKY/WX    TMP DP  RH WIND       PRES   REMARKS
GOODLAND       CLOUDY    61  51  70 SE5       30.24R
HILL CITY      MOCLDY    64  58  80 NE7       30.18R
NORTON         SUNNY     59  52  77 CALM      30.18R
PHILLIPSBURG   CLEAR     66  59  77 N6        30.16R
SMITH CENTER   CLEAR     59  57  94 N3        30.16R
HAYS           CLOUDY    68  55  64 NE7       30.13S
RUSSELL        CLOUDY    68  59  73 NE14      30.10F
CONCORDIA      CLOUDY    65  61  87 N6        30.11R
SALINA         TSTM      67  63  87 E12       30.08S
TOPEKA         TSTM      70  70 100 E9        30.06F FOG



USA.gov is the U.S. government's official web portal to all federal, state and local government web resources and services.